Oakes, ND

5:16 AM CDT on July 22, 2017 (GMT -0500)
Oakes

Weather History for K2D5 - April, 2014

Change the Weather History Date:

Tuesday, April 15, 2014

  Actual Average (KP67) Record (KP67)
Temperature  
Mean Temperature 24 °F -  
Max Temperature 37 °F 49 °F 48 °F (1998)
Min Temperature 10 °F 29 °F 28 °F (1997)
Degree Days  
Heating Degree Days 42    
Moisture  
Dew Point 13 °F    
Average Humidity 62    
Maximum Humidity 93    
Minimum Humidity 38    
Precipitation  
Precipitation 0.00 in - - ()
Sea Level Pressure  
Sea Level Pressure 30.01 in    
Wind  
Wind Speed 12 mph (East)    
Max Wind Speed 28 mph    
Max Gust Speed 34 mph    
Visibility 10 miles    
Events      
Averages and records for this station are not official NWS values.
T = Trace of Precipitation, MM = Missing Value Source: NWS Daily Summary

Daily Weather History Graph

Daily Weather History Graph

Search for Another Location

Airport or City:

Trip Planner

Search our weather history database for the weather conditions in past years. The results will help you decide how hot, cold, wet, or windy it might be!

Date:

Astronomy

Apr. 15, 2014 Rise Set
Actual Time 6:45 AM CDT 8:19 PM CDT
Civil Twilight 6:14 AM CDT 8:51 PM CDT
Nautical Twilight 5:36 AM CDT 9:29 PM CDT
Astronomical Twilight 4:55 AM CDT 10:10 PM CDT
Moon 9:04 PM CDT (4/15) 6:53 AM CDT (4/15)
Length of Visible Light 14h 36m
Length of Day
13h 33m
Full, 100% of the Moon is Illuminated
Apr 15
Full
Apr 22
Last Quarter
Apr 29
New
May 6
First Quarter
May 14
Full

Hourly Weather History & Observations

Time (CDT) Temp. Windchill Dew Point Humidity Pressure Visibility Wind Dir Wind Speed Gust Speed Precip Events Conditions
12:15 AM 17.6 °F 12.3 °F 10.4 °F 73% 30.19 in 10.0 mi NE 3.5 mph - N/A   Clear
12:35 AM 17.6 °F 9.3 °F 10.4 °F 73% 30.19 in 10.0 mi NE 5.8 mph - N/A   Clear
1:15 AM 15.8 °F 6.1 °F 10.4 °F 79% 30.19 in 10.0 mi ENE 6.9 mph - N/A   Clear
1:35 AM 14.0 °F 3.9 °F 10.4 °F 86% 30.19 in 10.0 mi ENE 6.9 mph - N/A   Clear
1:55 AM 14.0 °F 5.1 °F 10.4 °F 86% 30.19 in 10.0 mi ENE 5.8 mph - N/A   Clear
2:15 AM 14.0 °F 5.1 °F 10.4 °F 86% 30.18 in 10.0 mi East 5.8 mph - N/A   Clear
2:35 AM 14.0 °F 6.5 °F 10.4 °F 86% 30.19 in 10.0 mi ENE 4.6 mph - N/A   Clear
2:55 AM 14.0 °F 2.9 °F 10.4 °F 86% 30.18 in 10.0 mi ENE 8.1 mph - N/A   Clear
3:15 AM 14.0 °F 2.9 °F 10.4 °F 86% 30.17 in 10.0 mi ENE 8.1 mph - N/A   Clear
3:35 AM 14.0 °F 2.9 °F 10.4 °F 86% 30.16 in 10.0 mi ENE 8.1 mph - N/A   Clear
3:55 AM 14.0 °F 3.9 °F 12.2 °F 93% 30.16 in 10.0 mi East 6.9 mph - N/A   Clear
4:15 AM 14.0 °F 2.9 °F 10.4 °F 86% 30.15 in 10.0 mi East 8.1 mph - N/A   Clear
4:35 AM 15.8 °F 5.1 °F 12.2 °F 86% 30.14 in 10.0 mi East 8.1 mph - N/A   Clear
4:55 AM 15.8 °F 5.1 °F 10.4 °F 79% 30.14 in 10.0 mi East 8.1 mph - N/A   Clear
5:15 AM 14.0 °F 2.9 °F 10.4 °F 86% 30.14 in 10.0 mi East 8.1 mph - N/A   Clear
5:35 AM 14.0 °F 5.1 °F 8.6 °F 79% 30.15 in 10.0 mi SE 5.8 mph - N/A   Clear
5:55 AM 12.2 °F 0.7 °F 8.6 °F 85% 30.14 in 10.0 mi SE 8.1 mph - N/A   Clear
6:15 AM 10.4 °F -2.4 °F 8.6 °F 92% 30.14 in 10.0 mi SE 9.2 mph - N/A   Clear
6:35 AM 10.4 °F -0.4 °F 6.8 °F 85% 30.15 in 10.0 mi SE 6.9 mph - N/A   Clear
6:55 AM 10.4 °F -1.5 °F 8.6 °F 92% 30.14 in - SE 8.1 mph - N/A   Unknown
7:15 AM 14.0 °F 2.9 °F 10.4 °F 86% 30.14 in 10.0 mi SE 8.1 mph - N/A   Clear
7:35 AM 15.8 °F 5.1 °F 14.0 °F 93% 30.14 in 10.0 mi ESE 8.1 mph - N/A   Clear
7:55 AM 17.6 °F 5.0 °F 12.2 °F 79% 30.13 in 10.0 mi ESE 11.5 mph - N/A   Clear
8:15 AM 17.6 °F 4.3 °F 8.6 °F 68% 30.13 in 10.0 mi ESE 12.7 mph - N/A   Clear
8:35 AM 19.4 °F 7.9 °F 10.4 °F 68% 30.13 in 10.0 mi ESE 10.4 mph - N/A   Clear
8:55 AM 21.2 °F 8.9 °F 14.0 °F 74% 30.11 in 10.0 mi SE 12.7 mph - N/A   Mostly Cloudy
9:15 AM 21.2 °F 8.3 °F 15.8 °F 80% 30.11 in 10.0 mi ESE 13.8 mph - N/A   Scattered Clouds
9:35 AM 23.0 °F 11.1 °F 15.8 °F 74% 30.09 in 10.0 mi ESE 12.7 mph - N/A   Partly Cloudy
9:55 AM 24.8 °F 12.9 °F 15.8 °F 69% 30.09 in 10.0 mi ESE 13.8 mph - N/A   Scattered Clouds
10:15 AM 24.8 °F 13.4 °F 14.0 °F 64% 30.07 in 10.0 mi ESE 12.7 mph 18.4 mph N/A   Mostly Cloudy
10:35 AM 26.6 °F 15.7 °F 14.0 °F 59% 30.07 in 10.0 mi SSE 12.7 mph 19.6 mph N/A   Mostly Cloudy
10:55 AM 26.6 °F 15.2 °F 14.0 °F 59% 30.06 in 10.0 mi SSE 13.8 mph 19.6 mph N/A   Scattered Clouds
11:15 AM 28.4 °F 17.5 °F 14.0 °F 55% 30.05 in 10.0 mi SE 13.8 mph 21.9 mph N/A   Partly Cloudy
11:55 AM 30.2 °F 20.2 °F 12.2 °F 47% 30.03 in 10.0 mi ESE 12.7 mph 18.4 mph N/A   Mostly Cloudy
12:15 PM 32.0 °F 23.0 °F 12.2 °F 44% 30.01 in 10.0 mi SE 11.5 mph 19.6 mph N/A   Overcast
12:55 PM 32.0 °F 22.5 °F 14.0 °F 48% 29.99 in 10.0 mi ESE 12.7 mph 21.9 mph N/A   Overcast
1:15 PM 33.8 °F 24.3 °F 12.2 °F 41% 29.98 in 10.0 mi ESE 13.8 mph 20.7 mph N/A   Mostly Cloudy
1:35 PM 33.8 °F 24.3 °F 12.2 °F 41% 29.97 in 10.0 mi SE 13.8 mph 25.3 mph N/A   Mostly Cloudy
1:55 PM 33.8 °F 23.2 °F 12.2 °F 41% 29.96 in 10.0 mi SE 17.3 mph 25.3 mph N/A   Scattered Clouds
2:15 PM 35.6 °F 27.5 °F 14.0 °F 41% 29.95 in 10.0 mi ESE 11.5 mph 20.7 mph N/A   Mostly Cloudy
2:35 PM 35.6 °F 25.9 °F 14.0 °F 41% 29.94 in 10.0 mi ESE 16.1 mph 23.0 mph N/A   Overcast
2:55 PM 35.6 °F 24.5 °F 12.2 °F 38% 29.93 in 10.0 mi SE 20.7 mph - N/A   Overcast
3:15 PM 35.6 °F 26.2 °F 12.2 °F 38% 29.92 in 10.0 mi SE 15.0 mph 25.3 mph N/A   Overcast
3:35 PM 35.6 °F 25.5 °F 12.2 °F 38% 29.91 in 10.0 mi ESE 17.3 mph 24.2 mph N/A   Overcast
3:55 PM 35.6 °F 25.5 °F 12.2 °F 38% 29.90 in 10.0 mi ESE 17.3 mph 23.0 mph N/A   Mostly Cloudy
4:15 PM 37.4 °F 27.5 °F 14.0 °F 38% 29.89 in 10.0 mi ESE 18.4 mph 23.0 mph N/A   Partly Cloudy
4:35 PM 37.4 °F 27.8 °F 14.0 °F 38% 29.88 in 10.0 mi ESE 17.3 mph 24.2 mph N/A   Scattered Clouds
4:55 PM 35.6 °F 25.5 °F 15.8 °F 44% 29.88 in 10.0 mi East 17.3 mph 25.3 mph N/A   Overcast
5:15 PM 35.6 °F 23.4 °F 15.8 °F 44% 29.87 in 10.0 mi East 25.3 mph - N/A   Overcast
5:35 PM 35.6 °F 23.2 °F 15.8 °F 44% 29.86 in 10.0 mi East 26.5 mph 32.2 mph N/A   Overcast
5:55 PM 35.6 °F 23.2 °F 15.8 °F 44% 29.85 in 10.0 mi East 26.5 mph 32.2 mph N/A   Mostly Cloudy
6:15 PM 35.6 °F 23.4 °F 15.8 °F 44% 29.85 in 10.0 mi East 25.3 mph 32.2 mph N/A   Overcast
6:35 PM 33.8 °F 21.3 °F 14.0 °F 44% 29.85 in 10.0 mi East 24.2 mph 32.2 mph N/A   Overcast
6:55 PM 32.0 °F 18.1 °F 14.0 °F 48% 29.86 in 10.0 mi East 27.6 mph 32.2 mph N/A   Mostly Cloudy
7:15 PM 32.0 °F 19.2 °F 14.0 °F 48% 29.86 in 10.0 mi East 23.0 mph 33.4 mph N/A   Mostly Cloudy
7:35 PM 32.0 °F 18.6 °F 15.8 °F 51% 29.85 in 10.0 mi East 25.3 mph 32.2 mph N/A   Mostly Cloudy
7:55 PM 32.0 °F 18.6 °F 17.6 °F 55% 29.84 in 10.0 mi East 25.3 mph 34.5 mph N/A   Partly Cloudy
8:15 PM 32.0 °F 18.6 °F 17.6 °F 55% 29.84 in 10.0 mi East 25.3 mph 33.4 mph N/A   Clear
8:35 PM 32.0 °F 18.6 °F 17.6 °F 55% 29.84 in 10.0 mi East 25.3 mph 33.4 mph N/A   Clear
8:55 PM 32.0 °F 18.9 °F 17.6 °F 55% 29.85 in 10.0 mi East 24.2 mph 32.2 mph N/A   Partly Cloudy
9:15 PM 32.0 °F 18.9 °F 17.6 °F 55% 29.85 in 10.0 mi East 24.2 mph 29.9 mph N/A   Clear
9:35 PM 32.0 °F 19.2 °F 17.6 °F 55% 29.86 in 10.0 mi East 23.0 mph 32.2 mph N/A   Clear
9:55 PM 32.0 °F 18.4 °F 15.8 °F 51% 29.86 in 10.0 mi East 26.5 mph 33.4 mph N/A   Partly Cloudy
10:15 PM 32.0 °F 18.9 °F 15.8 °F 51% 29.86 in 10.0 mi East 24.2 mph 31.1 mph N/A   Partly Cloudy
10:35 PM 32.0 °F 18.9 °F 15.8 °F 51% 29.85 in 10.0 mi East 24.2 mph 28.8 mph N/A   Clear
10:55 PM 32.0 °F 18.6 °F 14.0 °F 48% 29.85 in 10.0 mi East 25.3 mph 32.2 mph N/A   Clear
11:15 PM 32.0 °F 19.5 °F 14.0 °F 48% 29.85 in 10.0 mi East 21.9 mph 29.9 mph N/A   Partly Cloudy
11:35 PM 32.0 °F 19.2 °F 14.0 °F 48% 29.85 in 10.0 mi East 23.0 mph 29.9 mph N/A   Partly Cloudy
11:55 PM 32.0 °F 18.6 °F 15.8 °F 51% 29.84 in 10.0 mi East 25.3 mph 31.1 mph N/A   Clear